Weather History for Winner, SD

Change the Weather History Date:

Sunday, February 3, 2013

  Actual Average Record
Temperature  
Mean Temperature 42 °F 25 °F  
Max Temperature 57 °F 36 °F 57 °F (2013)
Min Temperature 27 °F 15 °F 4 °F (2009)
Degree Days  
Heating Degree Days 23 40  
Month to date heating degree days 92 120  
Since 1 July heating degree days 3732 4075  
Cooling Degree Days 0 0  
Month to date cooling degree days 0 0  
Year to date cooling degree days 0 0  
Moisture  
Dew Point 26 °F    
Average Humidity 61    
Maximum Humidity 92    
Minimum Humidity 30    
Precipitation  
Precipitation 0.00 in 0.01 in 0.02 in (2012)
Month to date precipitation T 0.05  
Year to date precipitation T 0.30  
Sea Level Pressure  
Sea Level Pressure 29.96 in    
Wind  
Wind Speed 11 mph (West)    
Max Wind Speed 22 mph    
Max Gust Speed 26 mph    
Visibility 9 miles    
Events Fog    
T = Trace of Precipitation, MM = Missing Value Source: NWS Daily Summary

Daily Weather History Graph

Daily Weather History Graph

Search for Another Location

Airport:

Trip Planner

Search our weather history database for the weather conditions in past years. The results will help you decide how hot, cold, wet, or windy it might be!

Date:

Astronomy

Feb. 03, 2013 Rise Set
Actual Time 7:52 AM CST 5:54 PM CST
Civil Twilight 7:22 AM CST 6:24 PM CST
Nautical Twilight 6:48 AM CST 6:58 PM CST
Astronomical Twilight 6:15 AM CST 7:31 PM CST
Moon 1:22 AM CST (2/3) 11:31 AM CST (2/3)
Length of Visible Light 11h 01m
Length of Day
10h 01m
Waning Gibbous, 48% of the Moon is Illuminated
Feb 3
Waning Gibbous
Feb 10
New
Feb 17
First Quarter
Feb 25
Full
Mar 4
Last Quarter

Hourly Weather History & Observations

Time (CST) Temp. Windchill Dew Point Humidity Pressure Visibility Wind Dir Wind Speed Gust Speed Precip Events Conditions
12:53 AM 27.0 °F 20.5 °F 23.0 °F 85% 30.26 in 10.0 mi North 5.8 mph - N/A   Mostly Cloudy
1:53 AM 27.0 °F - 23.0 °F 85% 30.24 in 10.0 mi Calm Calm - N/A   Scattered Clouds
2:53 AM 27.0 °F 20.5 °F 23.0 °F 85% 30.23 in 10.0 mi SSW 5.8 mph - N/A   Overcast
3:53 AM 28.0 °F 21.7 °F 23.0 °F 81% 30.18 in 10.0 mi SSW 5.8 mph - N/A   Overcast
4:53 AM 28.0 °F 21.7 °F 23.0 °F 81% 30.17 in 10.0 mi SW 5.8 mph - N/A   Overcast
5:53 AM 28.9 °F 20.4 °F 23.0 °F 78% 30.13 in 10.0 mi SW 9.2 mph - N/A   Mostly Cloudy
6:53 AM 28.9 °F 18.2 °F 23.0 °F 78% 30.10 in 10.0 mi SSW 13.8 mph - N/A   Clear
7:53 AM 28.0 °F 16.5 °F 21.9 °F 78% 30.07 in 10.0 mi SSW 15.0 mph - N/A   Clear
8:53 AM 32.0 °F 23.6 °F 25.0 °F 75% 30.03 in 10.0 mi SW 10.4 mph - N/A   Clear
9:53 AM 39.0 °F 31.0 °F 28.0 °F 65% 30.01 in 10.0 mi SSW 13.8 mph - N/A   Clear
10:53 AM 46.0 °F 39.0 °F 28.9 °F 51% 29.97 in 10.0 mi WSW 17.3 mph 24.2 mph N/A   Clear
11:53 AM 48.9 °F - 30.0 °F 48% 29.93 in 10.0 mi WSW 12.7 mph - N/A   Clear
12:53 PM 52.0 °F - 30.0 °F 43% 29.88 in 10.0 mi WSW 16.1 mph - N/A   Clear
1:53 PM 55.9 °F - 28.9 °F 36% 29.85 in 10.0 mi West 15.0 mph 25.3 mph N/A   Clear
2:53 PM 57.0 °F - 27.0 °F 32% 29.81 in 10.0 mi West 18.4 mph - N/A   Clear
3:53 PM 54.0 °F - 28.0 °F 37% 29.80 in 10.0 mi WNW 15.0 mph - N/A   Clear
4:53 PM 50.0 °F - 28.9 °F 44% 29.80 in 10.0 mi WNW 5.8 mph - N/A   Clear
5:53 PM 46.9 °F - 27.0 °F 46% 29.79 in 10.0 mi SW 8.1 mph - N/A   Clear
6:53 PM 42.1 °F 37.7 °F 28.0 °F 58% 29.80 in 10.0 mi WSW 6.9 mph - N/A   Clear
7:53 PM 39.0 °F 33.4 °F 28.0 °F 65% 29.82 in 10.0 mi WNW 8.1 mph - N/A   Clear
8:53 PM 37.0 °F 29.3 °F 28.9 °F 73% 29.84 in 10.0 mi NW 11.5 mph - N/A   Scattered Clouds
9:53 PM 37.9 °F 29.6 °F 28.0 °F 68% 29.85 in 10.0 mi NW 13.8 mph - N/A   Partly Cloudy
10:53 PM 30.9 °F 21.2 °F 28.0 °F 89% 29.88 in 10.0 mi North 12.7 mph - N/A   Clear
11:34 PM 28.4 °F 19.1 °F 26.6 °F 93% 29.87 in 10.0 mi NNW 10.4 mph - N/A   Scattered Clouds
11:43 PM 28.4 °F 18.0 °F 26.6 °F 93% 29.87 in 4.0 mi NNW 12.7 mph - N/A   Mostly Cloudy
11:46 PM 28.4 °F 18.0 °F 26.6 °F 93% 29.88 in 1.8 mi NNW 12.7 mph - N/A   Mostly Cloudy
11:53 PM 28.0 °F 18.1 °F 27.0 °F 96% 29.92 in 0.5 mi NNW 11.5 mph - N/A Fog Light Freezing Fog